Change the Weather History Date:

Tuesday, March 12, 2013

  Actual Average Record
Temperature  
Mean Temperature 12 °F 26 °F  
Max Temperature 23 °F 35 °F 70 °F (2007)
Min Temperature 1 °F 18 °F -15 °F (1951)
Degree Days  
Heating Degree Days 53 39  
Month to date heating degree days 574 494  
Since 1 July heating degree days 7304 7070  
Cooling Degree Days 0 0  
Month to date cooling degree days 0 0  
Year to date cooling degree days 0 0  
Moisture  
Dew Point 12 °F    
Average Humidity 81    
Maximum Humidity 95    
Minimum Humidity 67    
Precipitation  
Precipitation 0.05 in 0.03 in 0.17 in (1986)
Month to date precipitation 0.26 0.25  
Year to date precipitation 0.80 1.16  
Sea Level Pressure  
Sea Level Pressure 30.20 in    
Wind  
Wind Speed 14 mph (WNW)    
Max Wind Speed 32 mph    
Max Gust Speed 39 mph    
Visibility 4 miles    
Events Fog , Snow    
T = Trace of Precipitation, MM = Missing Value Source: NWS Daily Summary

Daily Weather History Graph

Daily Weather History Graph

Search for Another Location

Airport or City:

Trip Planner

Search our weather history database for the weather conditions in past years. The results will help you decide how hot, cold, wet, or windy it might be!

Date:

Astronomy

Mar. 12, 2013 Rise Set
Actual Time 8:03 AM CDT 7:46 PM CDT
Civil Twilight 7:32 AM CDT 8:17 PM CDT
Nautical Twilight 6:56 AM CDT 8:53 PM CDT
Astronomical Twilight 6:19 AM CDT 9:30 PM CDT
Moon 8:04 AM CDT (3/12) 9:13 PM CDT (3/12)
Length of Visible Light 12h 44m
Length of Day
11h 42m
New Moon, 1% of the Moon is Illuminated
Mar 12
New Moon
Mar 19
First Quarter
Mar 27
Full
Apr 2
Last Quarter
Apr 10
New

Hourly Weather History & Observations

Time (CDT) Temp. Windchill Dew Point Humidity Pressure Visibility Wind Dir Wind Speed Gust Speed Precip Events Conditions
12:30 AM 23.0 °F 4.6 °F 19.4 °F 86% 29.95 in 0.8 mi WNW 33.4 mph 39.1 mph 0.00 in Snow Light Snow
12:49 AM 23.0 °F 5.4 °F 19.4 °F 86% 29.96 in 1.0 mi WNW 29.9 mph 36.8 mph 0.00 in Snow Light Snow
12:54 AM 23.0 °F 5.1 °F 19.9 °F 88% 30.04 in 0.8 mi WNW 31.1 mph 40.3 mph 0.01 in Snow Light Snow
1:38 AM 21.2 °F 3.9 °F 19.4 °F 93% 29.99 in 1.5 mi WNW 26.5 mph 32.2 mph 0.01 in Snow Light Snow
1:54 AM 21.9 °F 5.1 °F 19.9 °F 92% 30.07 in 1.8 mi WNW 25.3 mph 32.2 mph 0.01 in Snow Light Snow
2:28 AM 21.2 °F 3.9 °F 19.4 °F 93% 30.02 in 0.8 mi WNW 26.5 mph - 0.01 in Snow Light Snow
2:39 AM 21.2 °F 4.5 °F 19.4 °F 93% 30.02 in 1.0 mi WNW 24.2 mph 31.1 mph 0.01 in Snow Light Snow
2:54 AM 21.9 °F 4.8 °F 19.0 °F 89% 30.11 in 0.8 mi WNW 26.5 mph 35.7 mph 0.01 in Snow Light Snow
3:07 AM 21.2 °F 3.9 °F 19.4 °F 93% 30.04 in 0.5 mi WNW 26.5 mph - 0.01 in Fog , Snow Snow
3:54 AM 21.0 °F 4.3 °F 18.0 °F 88% 30.14 in 1.0 mi WNW 24.2 mph - 0.02 in Snow Light Snow
4:27 AM 19.4 °F 2.8 °F 17.6 °F 93% 30.07 in 0.8 mi WNW 21.9 mph - 0.01 in Snow Light Snow
4:35 AM 19.4 °F 2.8 °F 17.6 °F 93% 30.07 in 1.2 mi WNW 21.9 mph - 0.01 in Snow Light Snow
4:54 AM 19.9 °F 3.5 °F 17.1 °F 89% 30.16 in 1.8 mi WNW 21.9 mph - 0.01 in Snow Light Snow
5:03 AM 19.4 °F 2.8 °F 15.8 °F 86% 30.08 in 2.0 mi WNW 21.9 mph - 0.00 in Snow Light Snow
5:10 AM 19.4 °F 2.5 °F 15.8 °F 86% 30.08 in 1.2 mi WNW 23.0 mph - 0.00 in Snow Light Snow
5:52 AM 19.4 °F 2.1 °F 15.8 °F 86% 30.10 in 2.0 mi WNW 24.2 mph - 0.00 in Snow Light Snow
5:54 AM 19.0 °F 1.6 °F 15.1 °F 85% 30.19 in 2.0 mi WNW 24.2 mph - 0.00 in Snow Light Snow
6:22 AM 19.4 °F 3.2 °F 15.8 °F 86% 30.12 in 4.0 mi WNW 20.7 mph - 0.00 in   Overcast
6:42 AM 17.6 °F -0.3 °F 15.8 °F 93% 30.13 in 2.5 mi WNW 24.2 mph - 0.00 in   Overcast
6:54 AM 18.0 °F 0.9 °F 15.1 °F 88% 30.23 in 2.5 mi WNW 21.9 mph - 0.00 in   Overcast
7:17 AM 17.6 °F 0.5 °F 14.0 °F 86% 30.15 in 1.8 mi WNW 21.9 mph 29.9 mph 0.00 in Snow Light Snow
7:24 AM 17.6 °F 0.9 °F 14.0 °F 86% 30.15 in 2.5 mi WNW 20.7 mph - 0.00 in Snow Light Snow
7:32 AM 17.6 °F 0.5 °F 14.0 °F 86% 30.15 in 3.0 mi WNW 21.9 mph - N/A Snow Light Snow
7:42 AM 17.6 °F 0.5 °F 14.0 °F 86% 30.15 in 2.5 mi WNW 21.9 mph - 0.00 in Snow Light Snow
7:54 AM 17.1 °F -0.3 °F 12.9 °F 84% 30.25 in 2.0 mi WNW 21.9 mph 31.1 mph 0.00 in Snow Light Snow
8:28 AM 15.8 °F -1.5 °F 12.2 °F 86% 30.18 in 1.2 mi WNW 20.7 mph - 0.00 in Snow Light Snow
8:54 AM 15.1 °F -3.3 °F 10.9 °F 84% 30.29 in 0.8 mi WNW 23.0 mph - 0.00 in Snow Light Snow
9:02 AM 14.0 °F -4.3 °F 10.4 °F 86% 30.20 in 1.2 mi WNW 21.9 mph - 0.00 in Snow Light Snow
9:16 AM 14.0 °F -3.9 °F 10.4 °F 86% 30.21 in 2.0 mi WNW 20.7 mph - 0.00 in Snow Light Snow
9:36 AM 14.0 °F -3.4 °F 10.4 °F 86% 30.21 in 3.0 mi WNW 19.6 mph - 0.00 in Snow Light Snow
9:54 AM 12.9 °F -4.9 °F 9.0 °F 84% 30.32 in 4.0 mi WNW 19.6 mph - 0.00 in   Overcast
10:28 AM 12.2 °F -5.3 °F 6.8 °F 79% 30.23 in 6.0 mi WNW 18.4 mph - N/A   Haze
10:50 AM 12.2 °F -5.3 °F 6.8 °F 79% 30.24 in 9.0 mi NW 18.4 mph - N/A   Scattered Clouds
10:54 AM 14.0 °F -3.0 °F 7.0 °F 74% 30.34 in 10.0 mi WNW 18.4 mph - N/A   Partly Cloudy
11:54 AM 14.0 °F -2.5 °F 8.1 °F 77% 30.36 in 10.0 mi WNW 17.3 mph - N/A   Clear
12:54 PM 16.0 °F 0.1 °F 9.0 °F 74% 30.37 in 9.0 mi NW 17.3 mph - N/A   Clear
1:54 PM 16.0 °F 2.3 °F 9.0 °F 74% 30.38 in 10.0 mi WNW 12.7 mph - N/A   Clear
2:54 PM 17.1 °F 3.6 °F 8.1 °F 68% 30.37 in 10.0 mi WNW 12.7 mph - N/A   Clear
3:54 PM 17.1 °F 4.3 °F 9.0 °F 71% 30.38 in 10.0 mi WNW 11.5 mph - N/A   Clear
4:54 PM 18.0 °F 4.2 °F 9.0 °F 68% 30.38 in 10.0 mi WNW 13.8 mph - N/A   Clear
5:54 PM 17.1 °F 5.8 °F 8.1 °F 68% 30.37 in 10.0 mi WNW 9.2 mph - N/A   Clear
6:54 PM 15.1 °F 9.4 °F 6.1 °F 68% 30.37 in 10.0 mi NW 3.5 mph - N/A   Clear
7:54 PM 14.0 °F 8.2 °F 5.0 °F 67% 30.37 in 10.0 mi West 3.5 mph - N/A   Clear
8:54 PM 10.9 °F 4.7 °F 3.9 °F 73% 30.38 in 10.0 mi SW 3.5 mph - N/A   Clear
9:54 PM 7.0 °F - 1.9 °F 80% 30.38 in 10.0 mi Calm Calm - N/A   Clear
10:54 PM 5.0 °F - 1.0 °F 84% 30.39 in 10.0 mi Calm Calm - N/A   Clear
11:54 PM 1.9 °F - -0.9 °F 88% 30.39 in 10.0 mi Calm Calm - N/A   Clear